DW4075 Weather Reports


Display with metric or nautical units.
time (UTC)temp
F
wind
direction
speed
MPH
gust
MPH
rain 1hr
in
rain 24hr
in
rain mn
in
humidity
%
barometer
mb
20260831134627 59 10 0.0 5.0 0.00 0.06 0.06 91 1027.6
20260831134128 58 10 3.0 5.0 0.00 0.06 0.06 92 1027.6
20260831133627 58 4 2.0 5.0 0.00 0.06 0.06 92 1027.6
20260831133128 58 0 4.0 5.0 0.00 0.06 0.06 92 1027.6
20260831132627 57 303 2.0 5.0 0.00 0.06 0.06 92 1027.5
20260831132127 57 302 1.0 5.0 0.00 0.06 0.06 93 1027.5
20260831131628 57 302 0.0 2.0 0.00 0.06 0.06 93 1027.5
20260831131127 57 302 0.0 0.0 0.00 0.06 0.06 92 1027.3
20260831130627 57 302 0.0 0.0 0.00 0.06 0.06 92 1027.3
20260831130346 57 302 0.0 0.0 0.00 0.06 0.06 91 1027.2
20260831125628 57 302 0.0 0.0 0.00 0.06 0.06 91 1027.0
20260831125347 57 302 0.0 0.0 0.00 0.06 0.06 91 1026.9
20260831124848 57 302 0.0 0.0 0.00 0.06 0.06 91 1026.9
20260831124127 57 302 0.0 0.0 0.01 0.06 0.06 90 1026.7
20260831123627 57 302 0.0 2.0 0.01 0.06 0.06 90 1026.4
20260831123127 57 302 0.0 4.0 0.01 0.06 0.06 89 1026.3
20260831122628 57 302 1.0 4.0 0.01 0.06 0.06 89 1026.3
20260831122127 58 302 0.0 3.0 0.03 0.06 0.06 88 1026.1
20260831121627 58 300 2.0 3.0 0.06 0.06 0.06 88 1026.3
20260831121127 58 295 2.0 3.0 0.06 0.06 0.06 88 1026.3
20260831120627 58 293 2.0 3.0 0.06 0.06 0.06 87 1026.4
20260831120127 58 292 1.0 2.0 0.06 0.06 0.06 86 1026.7
20260831115627 59 292 0.0 7.0 0.06 0.00 0.06 85 1026.7
20260831115127 59 292 2.0 7.0 0.06 0.00 0.06 84 1026.8
20260831114627 60 298 5.0 7.0 0.06 0.00 0.06 83 1026.9
20260831114127 61 25 2.0 4.0 0.05 0.00 0.05 81 1026.9
20260831113627 62 25 0.0 2.0 0.05 0.00 0.05 78 1026.9
20260831113611 63 25 0.0 10.0 0.05 0.00 0.05 75 1027.0
20260831112627 65 25 2.0 10.0 0.05 0.00 0.05 73 1026.7
20260831112127 66 48 3.0 7.0 0.03 0.00 0.03 69 1026.6
20260831111855 66 59 2.0 7.0 0.00 0.00 0.00 57 1026.7
20260831111127 66 59 1.0 7.0 0.00 0.00 0.00 56 1026.3
20260831110627 66 42 4.0 10.0 0.00 0.00 0.00 56 1025.9
20260831110127 66 38 5.0 10.0 0.00 0.00 0.00 56 1025.7
20260831105627 66 27 4.0 10.0 0.00 0.00 0.00 56 1025.7
20260831105126 66 38 3.0 11.0 0.00 0.00 0.00 56 1025.7
20260831104627 66 31 5.0 11.0 0.00 0.00 0.00 56 1025.8
20260831104348 66 45 4.0 9.0 0.00 0.00 0.00 56 1025.8
20260831103627 66 45 2.0 9.0 0.00 0.00 0.00 56 1025.8
20260831103127 66 51 5.0 7.0 0.00 0.00 0.00 56 1025.8
20260831102626 67 45 4.0 7.0 0.00 0.00 0.00 55 1025.8
20260831102126 67 38 5.0 10.0 0.00 0.00 0.00 55 1025.9
20260831101627 67 39 6.0 10.0 0.00 0.00 0.00 55 1025.8
20260831101128 67 37 3.0 7.0 0.00 0.00 0.00 55 1025.8
20260831100627 67 39 5.0 7.0 0.00 0.00 0.00 55 1025.8
20260831100127 67 31 4.0 9.0 0.00 0.00 0.00 55 1025.7
20260831095627 67 31 4.0 9.0 0.00 0.00 0.00 55 1025.7
20260831095127 67 27 4.0 9.0 0.00 0.00 0.00 54 1025.7
20260831094626 67 24 3.0 9.0 0.00 0.00 0.00 54 1025.6
20260831094127 67 23 3.0 9.0 0.00 0.00 0.00 54 1025.5
20260831093627 67 17 4.0 6.0 0.00 0.00 0.00 54 1025.6
20260831093613 67 16 3.0 7.0 0.00 0.00 0.00 53 1025.5
20260831092627 67 13 3.0 7.0 0.00 0.00 0.00 53 1025.5
20260831092126 67 18 4.0 7.0 0.00 0.00 0.00 53 1025.5
20260831091850 67 23 3.0 6.0 0.00 0.00 0.00 52 1025.5
20260831091127 68 24 4.0 12.0 0.00 0.00 0.00 52 1025.6
20260831090626 68 13 4.0 12.0 0.00 0.00 0.00 52 1025.6
20260831090126 68 25 3.0 9.0 0.00 0.00 0.00 52 1025.5
20260831085626 68 24 4.0 10.0 0.00 0.00 0.00 52 1025.5
20260831085127 68 48 4.0 11.0 0.00 0.00 0.00 52 1025.3
20260831084850 68 47 4.0 11.0 0.00 0.00 0.00 52 1025.5
20260831084126 68 42 3.0 11.0 0.00 0.00 0.00 52 1025.3
20260831083627 68 28 5.0 11.0 0.00 0.00 0.00 52 1025.5
20260831083126 68 37 4.0 10.0 0.00 0.00 0.00 52 1025.5
20260831082626 69 31 3.0 10.0 0.00 0.00 0.00 52 1025.6
20260831082126 69 44 2.0 9.0 0.00 0.00 0.00 51 1025.5
20260831081626 69 37 5.0 9.0 0.00 0.00 0.00 51 1025.5
20260831081126 69 38 2.0 9.0 0.00 0.00 0.00 52 1025.5
20260831080626 69 37 4.0 9.0 0.00 0.00 0.00 52 1025.5
20260831080126 69 38 3.0 7.0 0.00 0.00 0.00 51 1025.5
20260831075626 69 41 2.0 6.0 0.00 0.00 0.00 52 1025.5
20260831075127 69 44 2.0 11.0 0.00 0.00 0.00 52 1025.5
20260831074627 68 45 4.0 11.0 0.00 0.00 0.00 52 1025.6
20260831074352 68 32 4.0 7.0 0.00 0.00 0.00 53 1025.5
20260831073627 68 48 3.0 9.0 0.00 0.00 0.00 54 1025.3
20260831073127 67 49 3.0 9.0 0.00 0.00 0.00 54 1025.5
20260831072627 67 35 3.0 7.0 0.00 0.00 0.00 55 1025.3
20260831072126 67 34 2.0 7.0 0.00 0.00 0.00 55 1025.2
20260831071626 67 34 3.0 7.0 0.00 0.00 0.00 56 1025.2
20260831071127 66 30 4.0 7.0 0.00 0.00 0.00 56 1025.1
20260831070627 66 10 3.0 7.0 0.00 0.00 0.00 56 1025.2
20260831070127 66 0 2.0 4.0 0.00 0.00 0.00 57 1025.0
20260831065627 66 0 0.0 4.0 0.00 0.00 0.00 57 1024.9
20260831065126 66 0 2.0 6.0 0.00 0.00 0.00 57 1024.9
20260831064626 65 0 2.0 6.0 0.00 0.00 0.00 56 1024.9
20260831064126 65 0 1.0 3.0 0.00 0.00 0.00 55 1024.9
20260831063626 65 0 1.0 2.0 0.00 0.00 0.00 54 1024.9
20260831063127 66 0 0.0 1.0 0.00 0.00 0.00 54 1024.6
20260831062627 66 0 0.0 2.0 0.00 0.00 0.00 53 1024.7
20260831062127 66 0 0.0 2.0 0.00 0.00 0.00 53 1024.6
20260831061846 66 0 0.0 4.0 0.00 0.00 0.00 53 1024.6
20260831061126 65 0 1.0 6.0 0.00 0.00 0.00 54 1024.7
20260831061117 65 358 3.0 6.0 0.00 0.00 0.00 54 1024.7
20260831060449 65 271 0.0 2.0 0.00 0.00 0.00 54 1024.6
20260831055626 66 271 0.0 0.0 0.00 0.00 0.00 53 1024.5
20260831055126 66 271 0.0 0.0 0.00 0.00 0.00 52 1024.4
20260831054627 67 271 0.0 0.0 0.00 0.00 0.00 52 1024.4
20260831054127 67 271 0.0 0.0 0.00 0.00 0.00 51 1024.5
20260831053852 67 271 0.0 0.0 0.00 0.00 0.00 51 1024.5
20260831053347 68 271 0.0 0.0 0.00 0.00 0.00 50 1024.5
20260831052626 68 271 0.0 0.0 0.00 0.00 0.00 49 1024.4
20260831052126 69 271 0.0 1.0 0.00 0.00 0.00 49 1024.5
20260831051820 69 271 0.0 3.0 0.00 0.00 0.00 48 1024.5
20260831050846 69 271 1.0 2.0 0.00 0.00 0.00 48 1024.5
20260831050127 69 271 0.0 3.0 0.00 0.00 0.00 46 1024.2
20260831045849 70 271 2.0 3.0 0.00 0.00 0.00 46 1024.2
20260831045126 70 271 1.0 4.0 0.00 0.00 0.00 46 1024.2
20260831044626 70 271 3.0 4.0 0.00 0.00 0.00 46 1024.4
20260831044126 70 269 0.0 2.0 0.00 0.00 0.00 46 1024.4
20260831043627 71 269 0.0 3.0 0.00 0.00 0.00 46 1024.4
20260831043126 71 269 1.0 5.0 0.00 0.00 0.00 45 1024.2
20260831042626 71 269 2.0 6.0 0.00 0.00 0.00 45 1024.2
20260831042126 72 278 3.0 6.0 0.00 0.00 0.00 45 1024.4
20260831041346 72 343 2.0 5.0 0.00 0.00 0.00 44 1024.4
20260831040627 72 347 3.0 5.0 0.00 0.00 0.00 44 1024.2
20260831040127 73 350 2.0 4.0 0.00 0.00 0.00 44 1024.2
20260831040109 73 350 2.0 5.0 0.00 0.00 0.00 44 1024.2
20260831035126 73 351 3.0 5.0 0.00 0.00 0.00 44 1024.2
20260831034626 73 0 2.0 4.0 0.00 0.00 0.00 45 1024.2
20260831034126 73 41 2.0 4.0 0.00 0.00 0.00 44 1024.4
20260831033627 73 42 2.0 5.0 0.00 0.00 0.00 44 1024.4
20260831033126 73 48 3.0 6.0 0.00 0.00 0.00 44 1024.4
20260831032627 73 86 3.0 6.0 0.00 0.00 0.00 45 1024.2
20260831032126 72 86 2.0 4.0 0.00 0.00 0.00 45 1024.2
20260831031626 72 86 2.0 4.0 0.00 0.00 0.00 46 1024.0
20260831031127 73 86 1.0 3.0 0.00 0.00 0.00 46 1024.0
20260831030626 73 86 2.0 3.0 0.00 0.00 0.00 46 1024.0
20260831030347 73 86 2.0 3.0 0.00 0.00 0.00 46 1023.9
20260831025627 73 86 2.0 3.0 0.00 0.00 0.00 46 1023.9
20260831025126 73 86 2.0 3.0 0.00 0.00 0.00 46 1023.8
20260831024626 73 86 2.0 3.0 0.00 0.00 0.00 46 1023.6
20260831024126 74 86 0.0 4.0 0.00 0.00 0.00 46 1023.6
20260831023626 74 86 2.0 4.0 0.00 0.01 0.00 45 1023.5
20260831023347 74 86 1.0 3.0 0.00 0.01 0.00 45 1023.5
20260831022626 74 86 1.0 5.0 0.00 0.01 0.00 44 1023.5
20260831022126 74 86 2.0 5.0 0.00 0.01 0.00 43 1023.4
20260831021627 75 86 2.0 5.0 0.00 0.01 0.00 44 1023.3
20260831021126 75 86 2.0 4.0 0.00 0.01 0.00 44 1023.2
20260831020626 75 87 1.0 4.0 0.00 0.01 0.00 43 1023.2
20260831020126 75 87 2.0 4.0 0.00 0.02 0.00 44 1023.0
20260831015627 76 87 2.0 4.0 0.00 0.06 0.00 43 1023.2
20260831015126 77 87 1.0 2.0 0.00 0.06 0.00 42 1023.2
20260831014626 78 87 0.0 0.0 0.00 0.06 0.00 40 1022.9
20260831014126 79 87 0.0 0.0 0.00 0.06 0.00 40 1022.9
20260831013847 80 87 0.0 0.0 0.00 0.06 0.00 38 1022.9
20260831013126 81 87 0.0 0.0 0.00 0.06 0.00 38 1022.9
20260831012626 82 87 0.0 0.0 0.00 0.06 0.00 38 1022.9
20260831012347 82 87 0.0 2.0 0.00 0.06 0.00 38 1022.9
20260831011626 83 87 0.0 2.0 0.00 0.06 0.00 36 1022.9
20260831011127 83 87 0.0 2.0 0.00 0.06 0.00 36 1022.9
20260831010626 83 87 0.0 2.0 0.00 0.06 0.00 35 1022.9
20260831010126 83 87 0.0 2.0 0.00 0.06 0.00 35 1022.9
20260831005626 84 87 0.0 3.0 0.00 0.06 0.00 35 1023.0
20260831005126 84 87 1.0 3.0 0.00 0.06 0.00 34 1022.9
20260831004626 84 87 0.0 0.0 0.00 0.06 0.00 34 1022.9
20260831004126 84 87 0.0 2.0 0.00 0.06 0.00 34 1023.0
20260831003626 84 87 0.0 4.0 0.00 0.06 0.00 33 1022.9
20260831003125 85 87 2.0 4.0 0.00 0.06 0.00 33 1023.0
20260831002626 85 87 0.0 5.0 0.00 0.06 0.00 33 1023.0
20260831002126 86 87 1.0 5.0 0.00 0.06 0.00 32 1023.0
20260831001626 86 87 0.0 4.0 0.00 0.06 0.00 33 1023.2
20260831001126 86 87 0.0 6.0 0.00 0.06 0.00 32 1023.2
20260831000626 87 87 3.0 6.0 0.00 0.06 0.00 33 1023.2
20260831000355 87 100 1.0 6.0 0.00 0.06 0.00 32 1023.2
20260830235627 87 100 2.0 6.0 0.00 0.06 0.00 33 1022.9
20260830235343 88 83 4.0 5.0 0.00 0.06 0.00 31 1023.0
20260830234626 87 42 2.0 4.0 0.00 0.06 0.00 32 1022.9
20260830234126 87 44 2.0 5.0 0.00 0.06 0.00 32 1022.9
20260830233626 87 44 2.0 5.0 0.00 0.06 0.00 32 1023.0
20260830233126 87 44 2.0 9.0 0.00 0.06 0.00 32 1023.0
20260830233104 87 51 3.0 9.0 0.00 0.06 0.00 32 1022.9
20260830232126 87 27 0.0 5.0 0.00 0.06 0.00 32 1022.9
20260830231849 87 27 2.0 5.0 0.00 0.06 0.00 32 1023.0
20260830231126 87 27 2.0 6.0 0.00 0.06 0.00 33 1023.2
20260830230626 88 30 2.0 6.0 0.00 0.06 0.00 32 1023.2
20260830230125 88 25 1.0 9.0 0.00 0.06 0.00 33 1023.0
20260830225626 88 25 1.0 10.0 0.00 0.06 0.00 32 1023.0
20260830225126 88 8 4.0 10.0 0.00 0.06 0.00 33 1023.3
20260830224626 88 354 2.0 9.0 0.00 0.06 0.00 33 1023.3
20260830224126 88 27 1.0 7.0 0.00 0.06 0.00 33 1023.3
20260830223626 87 17 4.0 9.0 0.00 0.06 0.00 33 1023.4
20260830223357 87 27 4.0 9.0 0.00 0.06 0.00 33 1023.4
20260830222625 87 42 3.0 6.0 0.00 0.06 0.00 33 1023.3
20260830222126 87 58 1.0 7.0 0.00 0.06 0.00 35 1023.4
20260830221626 87 48 4.0 7.0 0.00 0.06 0.00 34 1023.3
20260830221126 86 37 3.0 9.0 0.00 0.06 0.00 34 1023.5
20260830220626 86 27 3.0 9.0 0.00 0.06 0.00 35 1023.5
20260830220126 85 345 2.0 6.0 0.00 0.06 0.00 35 1023.6
20260830215625 85 37 2.0 6.0 0.00 0.06 0.00 37 1023.8
20260830215127 85 65 3.0 9.0 0.00 0.06 0.00 37 1023.8
20260830214626 84 42 4.0 10.0 0.00 0.06 0.00 37 1023.6
20260830214126 84 49 2.0 10.0 0.00 0.06 0.00 37 1023.9
20260830213626 83 39 3.0 7.0 0.00 0.06 0.00 38 1023.9
20260830213126 83 32 2.0 7.0 0.00 0.06 0.00 39 1023.9
20260830212625 82 32 2.0 5.0 0.00 0.06 0.00 40 1024.0
20260830212127 82 34 3.0 5.0 0.00 0.06 0.00 39 1024.0
20260830211625 82 34 3.0 6.0 0.00 0.06 0.00 41 1024.0
20260830211125 81 34 2.0 6.0 0.00 0.06 0.00 41 1024.1
20260830210626 81 27 3.0 6.0 0.00 0.06 0.00 41 1024.1
20260830210126 81 24 2.0 6.0 0.00 0.06 0.00 41 1024.2
20260830205625 81 28 4.0 9.0 0.00 0.06 0.00 41 1024.4
20260830205352 82 17 3.0 9.0 0.00 0.06 0.00 41 1024.5
20260830204625 82 0 3.0 6.0 0.00 0.06 0.00 42 1024.5
20260830204125 82 0 3.0 10.0 0.00 0.06 0.00 42 1024.6
20260830203626 82 351 5.0 10.0 0.00 0.06 0.00 43 1024.5
20260830203125 81 1 3.0 7.0 0.00 0.06 0.00 45 1024.6
20260830202627 80 3 4.0 9.0 0.00 0.06 0.00 44 1024.7
20260830202126 80 14 3.0 9.0 0.00 0.06 0.00 46 1024.9
20260830201625 80 20 3.0 6.0 0.00 0.06 0.00 46 1025.0
20260830201126 81 23 3.0 6.0 0.00 0.06 0.00 46 1025.1
20260830200844 81 38 2.0 6.0 0.00 0.06 0.00 51 1025.1
20260830200126 82 41 4.0 6.0 0.00 0.06 0.00 47 1025.2
20260830195626 83 17 1.0 9.0 0.00 0.06 0.00 48 1025.3
20260830195126 84 17 2.0 9.0 0.00 0.06 0.00 38 1025.3
20260830194625 85 39 2.0 6.0 0.00 0.06 0.00 37 1025.3
20260830194126 85 59 2.0 9.0 0.00 0.06 0.00 37 1025.3
20260830193626 86 56 4.0 9.0 0.00 0.06 0.00 39 1025.3
20260830193125 85 58 5.0 9.0 0.00 0.06 0.00 38 1025.3
20260830192625 85 1 4.0 11.0 0.00 0.06 0.00 37 1025.3
20260830192351 85 17 4.0 11.0 0.00 0.06 0.00 37 1025.3
20260830191626 85 45 6.0 11.0 0.00 0.06 0.00 37 1025.2
20260830191349 86 35 5.0 11.0 0.00 0.06 0.00 38 1025.5
20260830190626 85 16 4.0 6.0 0.00 0.06 0.00 38 1025.3
20260830190126 85 71 3.0 7.0 0.00 0.06 0.00 40 1025.3
20260830185626 84 86 2.0 7.0 0.00 0.06 0.00 41 1025.5
20260830185125 85 73 5.0 7.0 0.00 0.06 0.00 40 1025.6
20260830184625 85 96 4.0 9.0 0.00 0.06 0.00 40 1025.7
20260830184125 85 56 4.0 9.0 0.00 0.06 0.00 40 1025.7
20260830183626 84 8 2.0 7.0 0.00 0.06 0.00 40 1025.9
20260830183346 84 42 4.0 10.0 0.00 0.06 0.00 41 1025.8
20260830182625 83 3 4.0 10.0 0.00 0.06 0.00 42 1025.9
20260830182126 83 65 3.0 7.0 0.00 0.06 0.00 44 1025.9
20260830181626 82 55 3.0 7.0 0.00 0.06 0.00 43 1026.1
20260830181126 82 51 4.0 7.0 0.00 0.06 0.00 43 1026.2
20260830180626 83 66 3.0 9.0 0.00 0.06 0.00 44 1026.3
20260830180125 83 59 5.0 9.0 0.00 0.06 0.00 42 1026.2
20260830175625 83 52 2.0 5.0 0.00 0.06 0.00 44 1026.3
20260830175125 83 69 3.0 10.0 0.00 0.06 0.00 46 1026.4
20260830174626 82 72 2.0 10.0 0.00 0.06 0.00 46 1026.7
20260830174126 81 52 3.0 7.0 0.00 0.06 0.00 47 1026.8
20260830173625 81 61 0.0 7.0 0.00 0.06 0.00 45 1026.9
20260830173126 81 63 3.0 6.0 0.00 0.06 0.00 46 1027.0
20260830172625 81 63 3.0 6.0 0.00 0.06 0.00 48 1027.0
20260830172351 80 86 4.0 6.0 0.00 0.06 0.00 49 1027.2
20260830171625 80 134 1.0 7.0 0.00 0.06 0.00 51 1027.3
20260830171126 79 138 2.0 7.0 0.00 0.06 0.00 52 1027.3
20260830170626 79 207 1.0 5.0 0.00 0.06 0.00 50 1027.4
20260830170126 78 210 1.0 5.0 0.00 0.06 0.00 50 1027.5
20260830165626 78 262 1.0 3.0 0.00 0.06 0.00 54 1027.5
20260830165125 77 265 0.0 3.0 0.00 0.06 0.00 56 1027.5
20260830164625 76 265 1.0 6.0 0.00 0.06 0.00 56 1027.6
20260830164125 75 265 2.0 6.0 0.00 0.06 0.00 56 1027.6
20260830163848 74 0 2.0 4.0 0.00 0.06 0.00 60 1027.8
20260830163125 73 0 1.0 3.0 0.00 0.06 0.00 62 1027.8
20260830162625 72 0 0.0 0.0 0.00 0.06 0.00 65 1027.9
20260830162125 71 0 0.0 0.0 0.00 0.06 0.00 66 1027.9
20260830161625 70 0 0.0 0.0 0.00 0.06 0.00 67 1028.0
20260830161125 70 0 0.0 0.0 0.00 0.06 0.00 68 1028.1
20260830160626 69 0 0.0 0.0 0.00 0.06 0.00 70 1028.0
20260830160126 69 0 0.0 0.0 0.00 0.06 0.00 69 1027.9
20260830155625 69 0 0.0 0.0 0.00 0.06 0.00 69 1027.9
20260830155125 69 0 0.0 0.0 0.00 0.06 0.00 72 1027.8
20260830154625 68 0 0.0 0.0 0.00 0.06 0.00 72 1027.9
20260830154348 67 0 0.0 0.0 0.00 0.06 0.00 73 1027.8
20260830153625 67 0 0.0 0.0 0.00 0.06 0.00 71 1027.6
20260830153125 67 0 0.0 0.0 0.00 0.06 0.00 72 1027.6
20260830152625 67 0 0.0 0.0 0.00 0.06 0.00 72 1027.6
20260830152125 67 0 0.0 3.0 0.00 0.06 0.00 73 1027.6
20260830151625 67 0 0.0 3.0 0.00 0.06 0.00 74 1027.6
20260830151125 67 0 0.0 3.0 0.00 0.06 0.00 76 1027.5
20260830150625 66 0 0.0 3.0 0.00 0.06 0.00 75 1027.5
20260830150125 66 0 0.0 5.0 0.00 0.06 0.00 76 1027.5
20260830145625 66 0 2.0 5.0 0.00 0.06 0.00 76 1027.5
20260830145125 66 0 3.0 4.0 0.00 0.06 0.00 76 1027.5
20260830144626 65 341 0.0 4.0 0.00 0.06 0.00 78 1027.5
20260830144126 65 341 0.0 4.0 0.00 0.06 0.00 79 1027.5
20260830143845 65 341 1.0 4.0 0.00 0.06 0.00 78 1027.4
20260830143126 64 341 1.0 4.0 0.00 0.06 0.00 79 1027.5
20260830142625 64 341 0.0 3.0 0.00 0.06 0.00 80 1027.6
20260830142125 64 341 0.0 2.0 0.00 0.06 0.00 81 1027.6
20260830141625 63 341 0.0 2.0 0.00 0.06 0.00 82 1027.6
20260830141125 63 341 0.0 0.0 0.00 0.06 0.00 83 1027.6
20260830140847 62 341 0.0 0.0 0.00 0.06 0.00 84 1027.6
20260830140124 62 341 0.0 0.0 0.00 0.06 0.00 85 1027.6
20260830135625 62 341 0.0 0.0 0.00 0.06 0.00 86 1027.6
20260830135124 61 341 0.0 1.0 0.00 0.06 0.00 87 1027.5